O3B FM14 (43233 NORAD) Tracking and Keplerian Element Data

This shows tracking and keplerian element data for the satellite.

Feedback or suggestion? Click here.




ElementValue
Catalog43233
NameO3B FM14
Epoch Orbit8316
Epoch Day269.52960653
Epoch Year2022
RAAN12.983
Inclination0.0437
Eccentricity0.0002758
Argument of Perigee178.2458
Mean Anonmoly168.77
Mean Motion5.00115317
Decay Rate-1.6E-07
L11 43233U 18024C 22269.52960653 -.00000016 00000+0 00000+0 0 9993
L22 43233 0.0437 12.9830 0002758 178.2458 168.7700 5.00115317 83161

Live tracking and technical data element details for O3B FM14 (NORAD 43233). O3B FM14 can be tracked NOW for your location showing map with azimuth and elevation plus other details from your city location.

Track the satellite on the map from your city or location and see movement details for azimuth, elevation, latitude, longitude, range, height, and movement on the map or in text.







IsCatalogInMostPopularTable: catalog: 43233, numindb: 601
Update: records affected: 1



GetName: 43233 O3B FM14

Hit Count: updated at: Fri, 30 Sep 2022 03:13:40 GMT